Orbital elements of FENGYUN 1C DEB
| Launched | 9 May 1999 |
| Flight ended | – |
| Launch site | Taiyuan Space Center, PRC |
| Owner | People's Republic of China |
| NORAD ID | 29792 |
| Date fetched |
Epoch osculation |
Inc. [°] |
Ecc. | RA asc node [hr] |
Arg Peri. [°] |
Mean anom [°] |
Mean motion [rev/day] |
Abs. mag |
| Date fetched |
Epoch osculation |
Inc. [°] |
Ecc. | RA asc node [hr] |
Arg Peri. [°] |
Mean anom [°] |
Mean motion [rev/day] |
Abs. mag |
| 2026 May 05 17:57 | 2026 May 05 02:04:15 | 98.7397 | 0.00469 | 11.8671 | 347.1252 | 12.8722 | 14.15834 | – |
| 2026 May 04 17:57 | 2026 Apr 30 01:39:01 | 98.7400 | 0.00473 | 11.5389 | 1.8314 | 12.8722 | 14.15834 | – |
| 2026 May 03 17:57 | 2026 Apr 30 01:39:01 | 98.7400 | 0.00473 | 11.5389 | 1.8314 | 12.8722 | 14.15834 | – |
| 2026 May 02 17:57 | 2026 Apr 30 01:39:01 | 98.7400 | 0.00473 | 11.5389 | 1.8314 | 12.8722 | 14.15834 | – |
| 2026 May 01 17:56 | 2026 Apr 30 01:39:01 | 98.7400 | 0.00473 | 11.5389 | 1.8314 | 12.8722 | 14.15834 | – |
| 2026 Apr 30 17:56 | 2026 Apr 30 01:39:01 | 98.7400 | 0.00473 | 11.5389 | 1.8314 | 12.8722 | 14.15834 | – |
| 2026 Apr 29 17:57 | 2026 Apr 24 03:10:44 | 98.7410 | 0.00479 | 11.1507 | 19.1072 | 12.8722 | 14.15834 | – |
| 2026 Apr 28 17:56 | 2026 Apr 24 03:10:44 | 98.7410 | 0.00479 | 11.1507 | 19.1072 | 12.8722 | 14.15834 | – |
| 2026 Apr 27 17:58 | 2026 Apr 24 03:10:44 | 98.7410 | 0.00479 | 11.1507 | 19.1072 | 12.8722 | 14.15834 | – |
| 2026 Apr 26 17:58 | 2026 Apr 24 03:10:44 | 98.7410 | 0.00479 | 11.1507 | 19.1072 | 12.8722 | 14.15834 | – |
| 2026 Apr 25 17:58 | 2026 Apr 24 03:10:44 | 98.7410 | 0.00479 | 11.1507 | 19.1072 | 12.8722 | 14.15834 | – |
| 2026 Apr 24 17:59 | 2026 Apr 24 03:10:44 | 98.7410 | 0.00479 | 11.1507 | 19.1072 | 12.8722 | 14.15834 | – |
| 2026 Apr 23 17:57 | 2026 Apr 19 02:45:20 | 98.7413 | 0.00484 | 10.8224 | 33.5166 | 12.8722 | 14.15834 | – |
| 2026 Apr 22 17:57 | 2026 Apr 19 02:45:20 | 98.7413 | 0.00484 | 10.8224 | 33.5166 | 12.8722 | 14.15834 | – |
| 2026 Apr 21 17:57 | 2026 Apr 19 02:45:20 | 98.7413 | 0.00484 | 10.8224 | 33.5166 | 12.8722 | 14.15834 | – |
| 2026 Apr 20 17:57 | 2026 Apr 19 02:45:20 | 98.7413 | 0.00484 | 10.8224 | 33.5166 | 12.8722 | 14.15834 | – |
| 2026 Apr 19 17:58 | 2026 Apr 19 02:45:20 | 98.7413 | 0.00484 | 10.8224 | 33.5166 | 12.8722 | 14.15834 | – |
| 2026 Apr 18 17:56 | 2026 Apr 13 02:35:06 | 98.7417 | 0.00490 | 10.4295 | 50.5884 | 12.8722 | 14.15834 | – |
| 2026 Apr 16 17:57 | 2026 Apr 13 02:35:06 | 98.7417 | 0.00490 | 10.4295 | 50.5884 | 12.8722 | 14.15834 | – |
| 2026 Apr 14 17:57 | 2026 Apr 13 02:35:06 | 98.7417 | 0.00490 | 10.4295 | 50.5884 | 12.8722 | 14.15834 | – |
| 2026 Apr 13 17:57 | 2026 Apr 13 02:35:06 | 98.7417 | 0.00490 | 10.4295 | 50.5884 | 12.8722 | 14.15834 | – |
| 2026 Apr 12 17:57 | 2026 Apr 08 14:01:57 | 98.7420 | 0.00493 | 10.1336 | 63.3899 | 12.8722 | 14.15834 | – |
| 2026 Apr 11 17:57 | 2026 Apr 08 14:01:57 | 98.7420 | 0.00493 | 10.1336 | 63.3899 | 12.8722 | 14.15834 | – |
| 2026 Apr 10 17:58 | 2026 Apr 08 14:01:57 | 98.7420 | 0.00493 | 10.1336 | 63.3899 | 12.8722 | 14.15834 | – |
| 2026 Apr 09 18:01 | 2026 Apr 08 14:01:57 | 98.7420 | 0.00493 | 10.1336 | 63.3899 | 12.8722 | 14.15834 | – |
| 2026 Apr 08 17:57 | 2026 Apr 08 14:01:57 | 98.7420 | 0.00493 | 10.1336 | 63.3899 | 12.8722 | 14.15834 | – |